Погода в Яле

Таиланд     6°32′44″N   101°17′30″E
темп.,
°C
ветер,
м/с
пор.,
м/с
влажн.,
%
обл.,
%
осадки,
мм/ч
давл.,
гПа
погр.,
м
9 марта, вт
вт901:00+20юв129435 0.0 101323
04:00+20юв229455 0.0 101223
07:00+20ююв229277 0.0 101337
10:00+29всв3559100 0.0 1014933
13:00+32всв6746100 0.0 10111510
16:00+31всв674898 0.0 10091473
19:00+24всв368080 0.0 1011142
22:00+22в229333 0.0 101432
10 марта, ср
ср1001:00+21юв129417 0.0 101323
04:00+20ююв12950 0.0 101223
07:00+21ююв11930 0.0 101330
10:00+29в47583 0.0 10141274
13:00+33всв68422 0.0 10111811
16:00+31всв67500 0.0 10091527
19:00+25всв38760 0.0 1011237
22:00+22в22930 0.0 101333
11 марта, чт
чт1101:00+21ююв22960 0.0 101227
04:00+21юв11950 0.0 101023
07:00+22вюв11910 0.0 101236
10:00+29в476034 0.0 10131256
13:00+32всв684956 0.0 10101799
16:00+31всв675275 0.1 10091733
19:00+25в367872 0.3 1011202
22:00+22вюв229392 0.0 101340
12 марта, пт
пт1201:00+22юв229568 0.0 101231
04:00+21ююв129581 0.0 101024
07:00+22вюв119290 0.0 101269
10:00+29в576699 0.1 10141184
13:00+31всв685584 0.8 10111669
16:00+30всв6754100 0.3 10091603
19:00+25всв377253 0.3 1011223
22:00+23в229244 0.0 101330
13 марта, сб
сб1301:00+21ююв229472 0.0 101228
04:00+20ююв1294100 0.0 101123
07:00+22ююв1292100 0.0 101251
10:00+30в4659100 0.0 10131254
13:00+32всв565192 0.0 10111717
16:00+31всв675554 0.1 10091364
19:00+25всв338477 0.3 101188
22:00+22юв229468 0.0 101331